TimeCST,TemperatureF,Dew PointF,Humidity,Sea Level PressureIn,VisibilityMPH,Wind Direction,Wind SpeedMPH,Gust SpeedMPH,PrecipitationIn,Events,Conditions,WindDirDegrees,DateUTC
12:15 AM,39.2,37.4,93,30.26,10.0,North,17.3,27.6,N/A,,Overcast,350,2013-11-22 06:15:00
12:35 AM,39.2,37.4,93,30.26,10.0,North,10.4,23.0,N/A,,Overcast,350,2013-11-22 06:35:00
12:55 AM,39.2,35.6,87,30.28,10.0,NNW,10.4,19.6,N/A,,Overcast,340,2013-11-22 06:55:00
1:15 AM,39.2,35.6,87,30.28,10.0,NNW,15.0,21.9,N/A,,Overcast,340,2013-11-22 07:15:00
1:35 AM,39.2,35.6,87,30.29,10.0,NNW,16.1,24.2,N/A,,Overcast,340,2013-11-22 07:35:00
1:55 AM,39.2,35.6,87,30.30,5.0,NNW,9.2,18.4,0.01,,Overcast,340,2013-11-22 07:55:00
2:15 AM,37.4,35.6,93,30.30,5.0,North,10.4,21.9,N/A,,Overcast,350,2013-11-22 08:15:00
2:35 AM,37.4,35.6,93,30.31,7.0,North,12.7,23.0,N/A,,Overcast,350,2013-11-22 08:35:00
2:55 AM,37.4,33.8,87,30.30,10.0,North,16.1,23.0,N/A,,Overcast,350,2013-11-22 08:55:00
3:15 AM,37.4,33.8,87,30.29,5.0,North,17.3,25.3,N/A,,Overcast,350,2013-11-22 09:15:00
3:35 AM,37.4,33.8,87,30.32,10.0,North,12.7,17.3,N/A,,Overcast,350,2013-11-22 09:35:00
3:55 AM,37.4,33.8,87,30.32,10.0,NNW,11.5,20.7,N/A,,Overcast,340,2013-11-22 09:55:00
4:15 AM,37.4,33.8,87,30.32,10.0,North,18.4,27.6,N/A,,Overcast,360,2013-11-22 10:15:00
4:35 AM,37.4,33.8,87,30.34,10.0,North,10.4,21.9,N/A,,Overcast,350,2013-11-22 10:35:00
4:55 AM,37.4,33.8,87,30.35,10.0,North,15.0,24.2,N/A,,Overcast,350,2013-11-22 10:55:00
5:15 AM,35.6,33.8,93,30.35,7.0,North,12.7,19.6,N/A,,Overcast,350,2013-11-22 11:15:00
5:35 AM,35.6,33.8,93,30.36,7.0,North,10.4,18.4,N/A,,Overcast,350,2013-11-22 11:35:00
5:55 AM,35.6,33.8,93,30.38,7.0,North,12.7,19.6,N/A,,Overcast,350,2013-11-22 11:55:00
7:55 AM,35.6,32.0,87,30.42,-9999.0,NNW,11.5,21.9,N/A,,Overcast,340,2013-11-22 13:55:00
8:50 AM,35.6,32.0,87,30.42,7.0,North,17.3,25.3,N/A,,Overcast,350,2013-11-22 14:50:00
10:50 AM,35.6,32.0,87,30.45,7.0,North,13.8,25.3,N/A,,Overcast,350,2013-11-22 16:50:00
11:50 AM,35.6,32.0,87,30.44,4.0,NNW,10.4,-,N/A,,Overcast,340,2013-11-22 17:50:00
12:50 PM,35.6,33.8,93,30.44,10.5,NNW,11.5,18.4,N/A,,Overcast,340,2013-11-22 18:50:00
1:50 PM,35.6,33.8,93,30.42,3.0,NNW,11.5,20.7,N/A,,Overcast,330,2013-11-22 19:50:00
2:50 PM,35.6,32.0,87,30.42,5.0,NNW,11.5,16.1,N/A,,Overcast,340,2013-11-22 20:50:00
3:50 PM,35.6,33.8,93,30.42,3.0,NNW,10.4,20.7,N/A,,Overcast,340,2013-11-22 21:50:00
4:50 PM,35.6,33.8,93,30.42,4.0,North,9.2,23.0,N/A,,Mostly Cloudy,350,2013-11-22 22:50:00
5:50 PM,35.6,33.8,93,30.44,3.0,North,9.2,-,N/A,,Overcast,350,2013-11-22 23:50:00
8:15 PM,33.8,33.8,100,30.46,3.0,North,6.9,-,N/A,,Overcast,350,2013-11-23 02:15:00
8:35 PM,33.8,33.8,100,30.46,3.0,North,9.2,17.3,N/A,,Overcast,350,2013-11-23 02:35:00
8:55 PM,33.8,33.8,100,30.47,4.0,North,9.2,-,N/A,,Overcast,350,2013-11-23 02:55:00
9:15 PM,33.8,33.8,100,30.46,4.0,North,8.1,17.3,N/A,,Overcast,350,2013-11-23 03:15:00
9:35 PM,35.6,33.8,93,30.46,4.0,North,9.2,-,N/A,,Overcast,350,2013-11-23 03:35:00
9:55 PM,35.6,33.8,93,30.47,3.0,North,11.5,16.1,N/A,,Overcast,360,2013-11-23 03:55:00
10:15 PM,35.6,33.8,93,30.47,3.0,North,10.4,16.1,N/A,,Overcast,350,2013-11-23 04:15:00
10:35 PM,35.6,33.8,93,30.47,4.0,North,13.8,20.7,N/A,,Overcast,360,2013-11-23 04:35:00
10:55 PM,35.6,33.8,93,30.47,3.0,North,11.5,18.4,N/A,,Overcast,350,2013-11-23 04:55:00
11:15 PM,35.6,33.8,93,30.48,3.0,North,11.5,20.7,N/A,,Overcast,360,2013-11-23 05:15:00
11:35 PM,35.6,33.8,93,30.48,5.0,North,9.2,20.7,N/A,,Overcast,360,2013-11-23 05:35:00
11:55 PM,35.6,33.8,93,30.47,7.0,North,16.1,-,N/A,,Overcast,360,2013-11-23 05:55:00